Weather History for Middletown, OH

Change the Weather History Date:

Monday, July 8, 2013

  Actual Average (KDAY) Record (KDAY)
Temperature  
Mean Temperature 77 °F 74 °F  
Max Temperature 87 °F 84 °F 104 °F (1936)
Min Temperature 67 °F 65 °F 49 °F (1984)
Degree Days  
Heating Degree Days 0 0  
Month to date heating degree days 0  
Since 1 June heating degree days 22  
Since 1 July heating degree days 0  
Cooling Degree Days 12 9  
Month to date cooling degree days 72  
Year to date cooling degree days 332  
Since 1 June cooling degree days 262  
Growing Degree Days 27 (Base 50)    
Moisture  
Dew Point 72 °F    
Average Humidity 88    
Maximum Humidity 100    
Minimum Humidity 74    
Precipitation  
Precipitation 0.00 in 0.15 in 1.43 in (1946)
Month to date precipitation 1.13  
Year to date precipitation 22.34  
Snow  
Snow 0.00 in 0.00 in 0.00 in ()
Month to date snowfall 0.0  
Since 1 June snowfall 0.0  
Since 1 July snowfall 0.0  
Snow Depth -    
Sea Level Pressure  
Sea Level Pressure 30.11 in    
Wind  
Wind Speed 4 mph (SW)    
Max Wind Speed 13 mph    
Max Gust Speed 16 mph    
Visibility 8 miles    
Events      
T = Trace of Precipitation, MM = Missing Value Source: NWS Daily Summary

Daily Weather History Graph

Daily Weather History Graph

Search for Another Location

Airport:

Trip Planner

Search our weather history database for the weather conditions in past years. The results will help you decide how hot, cold, wet, or windy it might be!

Date:

Astronomy

Jul. 08, 2013 Rise Set
Actual Time 6:18 AM EDT 9:07 PM EDT
Civil Twilight 5:46 AM EDT 9:39 PM EDT
Nautical Twilight 5:05 AM EDT 10:19 PM EDT
Astronomical Twilight 4:19 AM EDT 11:05 PM EDT
Moon 6:46 AM EDT (7/8) 9:09 PM EDT (7/8)
Length of Visible Light 15h 53m
Length of Day
14h 49m
New Moon, 0% of the Moon is Illuminated
Jul 8
New Moon
Jul 15
First Quarter
Jul 22
Full
Jul 29
Last Quarter
Aug 6
New

Hourly Weather History & Observations

Time (EDT) Temp. Heat Index Dew Point Humidity Pressure Visibility Wind Dir Wind Speed Gust Speed Precip Events Conditions
12:15 AM 67.6 °F - 67.6 °F 100% 30.11 in 7.0 mi Calm Calm - N/A   Clear
12:35 AM 67.6 °F - 67.6 °F 100% 30.11 in 5.0 mi Calm Calm - N/A   Clear
12:55 AM 67.6 °F - 67.6 °F 100% 30.11 in - Calm Calm - N/A   Unknown
1:15 AM 67.6 °F - 67.6 °F 100% 30.11 in 3.0 mi Calm Calm - N/A   Scattered Clouds
1:35 AM 67.6 °F - 67.6 °F 100% 30.11 in - Calm Calm - N/A   Mostly Cloudy
1:55 AM 67.6 °F - 67.6 °F 100% 30.11 in 4.0 mi Calm Calm - N/A   Overcast
2:15 AM 67.6 °F - 67.6 °F 100% 30.11 in 5.0 mi Calm Calm - N/A   Overcast
2:35 AM 67.6 °F - 67.6 °F 100% 30.12 in 7.0 mi Calm Calm - N/A   Overcast
2:55 AM 68.5 °F - 68.5 °F 100% 30.11 in 10.0 mi SSW 3.5 mph - N/A   Mostly Cloudy
3:15 AM 68.2 °F - 68.2 °F 100% 30.11 in - SW 3.5 mph - N/A   Unknown
3:35 AM 68.0 °F - 68.0 °F 100% 30.11 in - SW 5.8 mph - N/A   Unknown
3:55 AM 68.9 °F - 68.9 °F 100% 30.10 in 10.0 mi South 4.6 mph - N/A   Scattered Clouds
4:15 AM 67.6 °F - 67.6 °F 100% 30.11 in 10.0 mi Calm Calm - N/A   Clear
4:35 AM 67.6 °F - 67.6 °F 100% 30.11 in 10.0 mi Calm Calm - N/A   Clear
4:55 AM 67.6 °F - 67.6 °F 100% 30.11 in 4.0 mi Calm Calm - N/A   Clear
5:15 AM 67.6 °F - 67.6 °F 100% 30.11 in 5.0 mi WSW 3.5 mph - N/A   Clear
5:35 AM 67.6 °F - 67.6 °F 100% 30.11 in 5.0 mi SW 4.6 mph - N/A   Clear
5:55 AM 67.6 °F - 67.6 °F 100% 30.12 in 5.0 mi Calm Calm - N/A   Clear
6:15 AM 67.6 °F - 67.6 °F 100% 30.12 in 5.0 mi WSW 4.6 mph - N/A   Clear
6:55 AM 67.6 °F - 67.6 °F 100% 30.13 in 4.0 mi West 3.5 mph - N/A   Scattered Clouds
7:15 AM 67.6 °F - 67.6 °F 100% 30.13 in 4.0 mi Calm Calm - N/A   Clear
7:35 AM 67.6 °F - 67.6 °F 100% 30.13 in 4.0 mi Calm Calm - N/A   Clear
7:55 AM 68.5 °F - 68.5 °F 100% 30.14 in 5.0 mi Calm Calm - N/A   Clear
8:15 AM 69.8 °F - 69.8 °F 100% 30.15 in 5.0 mi Calm Calm - N/A   Scattered Clouds
8:35 AM 71.8 °F - 71.8 °F 100% 30.15 in 5.0 mi ENE 3.5 mph - N/A   Mostly Cloudy
8:55 AM 72.7 °F - 72.1 °F 98% 30.15 in 7.0 mi Calm Calm - N/A   Scattered Clouds
9:15 AM 72.7 °F - 70.7 °F 93% 30.15 in 10.0 mi Calm Calm - N/A   Clear
9:35 AM 75.2 °F - 72.5 °F 91% 30.15 in 10.0 mi SSW 4.6 mph - N/A   Clear
9:55 AM 75.2 °F - 72.1 °F 90% 30.15 in 10.0 mi SSW 3.5 mph - N/A   Mostly Cloudy
10:15 AM 76.1 °F - 72.5 °F 89% 30.15 in 10.0 mi SSW 6.9 mph - N/A   Scattered Clouds
10:35 AM 77.9 °F - 73.0 °F 85% 30.15 in 10.0 mi SW 4.6 mph - N/A   Clear
10:55 AM 78.6 °F - 73.6 °F 84% 30.15 in 10.0 mi SW 5.8 mph - N/A   Clear
11:15 AM 80.1 °F 84.8 °F 74.7 °F 83% 30.15 in 10.0 mi SSW 6.9 mph - N/A   Clear
11:35 AM 81.0 °F 86.5 °F 74.5 °F 81% 30.15 in 10.0 mi WSW 6.9 mph - N/A   Clear
11:55 AM 82.0 °F 88.6 °F 74.8 °F 79% 30.15 in 10.0 mi SW 9.2 mph - N/A   Clear
12:15 PM 81.9 °F 88.0 °F 74.3 °F 78% 30.15 in 10.0 mi WSW 10.4 mph 16.1 mph N/A   Clear
12:35 PM 82.2 °F 88.8 °F 74.7 °F 78% 30.15 in 10.0 mi West 12.7 mph - N/A   Scattered Clouds
12:55 PM 82.4 °F 89.0 °F 74.7 °F 77% 30.15 in 10.0 mi WSW 11.5 mph - N/A   Scattered Clouds
1:15 PM 82.4 °F 89.2 °F 74.8 °F 78% 30.15 in 10.0 mi WSW 10.4 mph - N/A   Mostly Cloudy
1:35 PM 82.4 °F 88.4 °F 73.8 °F 75% 30.14 in 10.0 mi SW 9.2 mph - N/A   Scattered Clouds
1:55 PM 82.4 °F 89.0 °F 74.7 °F 77% 30.14 in 10.0 mi SW 9.2 mph - N/A   Clear
2:15 PM 85.3 °F 95.0 °F 76.3 °F 74% 30.14 in 10.0 mi WSW 12.7 mph - N/A   Scattered Clouds
2:35 PM 83.8 °F 91.8 °F 75.2 °F 75% 30.13 in 10.0 mi WSW 11.5 mph - N/A   Scattered Clouds
2:55 PM 85.3 °F 95.4 °F 76.6 °F 75% 30.12 in 10.0 mi WSW 9.2 mph - N/A   Scattered Clouds
3:15 PM 82.6 °F 89.1 °F 74.3 °F 76% 30.11 in 10.0 mi WSW 10.4 mph - N/A   Clear
3:35 PM 87.8 °F 101.9 °F 78.4 °F 74% 30.11 in 10.0 mi West 11.5 mph - N/A   Clear
3:55 PM 82.8 °F 89.2 °F 73.9 °F 75% 30.11 in 10.0 mi WSW 10.4 mph - N/A   Clear
4:15 PM 82.2 °F 88.8 °F 74.7 °F 78% 30.10 in 10.0 mi WSW 5.8 mph - N/A   Clear
4:35 PM 84.2 °F 93.4 °F 76.5 °F 77% 30.10 in 10.0 mi WSW 8.1 mph - N/A   Scattered Clouds
4:55 PM 85.1 °F 95.8 °F 77.2 °F 77% 30.09 in 10.0 mi WSW 8.1 mph - N/A   Scattered Clouds
5:15 PM 82.4 °F 89.0 °F 74.7 °F 77% 30.08 in 10.0 mi WSW 9.2 mph - N/A   Mostly Cloudy
5:35 PM 81.9 °F 88.5 °F 75.0 °F 80% 30.08 in 10.0 mi SW 8.1 mph - N/A   Scattered Clouds
5:55 PM 87.8 °F 103.1 °F 79.3 °F 76% 30.07 in 10.0 mi SW 8.1 mph - N/A   Clear
6:15 PM 87.1 °F 100.9 °F 78.8 °F 76% 30.06 in 10.0 mi SW 9.2 mph - N/A   Clear
6:35 PM 82.4 °F 88.7 °F 74.1 °F 76% 30.07 in 10.0 mi WSW 9.2 mph - N/A   Clear
6:55 PM 81.5 °F 87.2 °F 74.1 °F 78% 30.06 in 10.0 mi SW 8.1 mph - N/A   Clear
7:15 PM 81.0 °F 86.5 °F 74.5 °F 81% 30.07 in 10.0 mi WSW 6.9 mph - N/A   Mostly Cloudy
7:35 PM 81.3 °F 87.4 °F 74.8 °F 81% 30.07 in 10.0 mi WSW 3.5 mph - N/A   Scattered Clouds
7:55 PM 81.0 °F 86.9 °F 75.4 °F 83% 30.07 in 10.0 mi SW 5.8 mph - N/A   Clear
8:15 PM 80.2 °F 85.4 °F 74.8 °F 84% 30.08 in 10.0 mi SW 5.8 mph - N/A   Clear
8:35 PM 79.0 °F - 74.3 °F 85% 30.08 in 10.0 mi SW 5.8 mph - N/A   Clear
8:55 PM 79.0 °F - 74.1 °F 85% 30.08 in 10.0 mi SW 6.9 mph - N/A   Scattered Clouds
9:15 PM 79.5 °F - 74.3 °F 84% 30.08 in 10.0 mi SW 8.1 mph - N/A   Mostly Cloudy
9:35 PM 79.0 °F - 73.9 °F 84% 30.08 in 10.0 mi SW 6.9 mph - N/A   Mostly Cloudy
9:55 PM 79.0 °F - 74.3 °F 85% 30.08 in - SW 6.9 mph - N/A   Overcast
10:15 PM 78.3 °F - 74.1 °F 87% 30.08 in - SW 6.9 mph - N/A   Unknown
10:35 PM 77.9 °F - 74.3 °F 89% 30.09 in - SW 6.9 mph - N/A   Overcast
10:55 PM 77.9 °F - 74.3 °F 89% 30.09 in - SW 5.8 mph - N/A   Overcast
11:15 PM 78.1 °F - 73.9 °F 87% 30.10 in - SW 5.8 mph - N/A   Overcast
11:35 PM 77.9 °F - 74.3 °F 89% 30.10 in - SW 6.9 mph - N/A   Overcast
11:55 PM 77.9 °F - 74.3 °F 89% 30.10 in - SW 6.9 mph - N/A   Overcast